Printer-friendly version

IAU Minor Planet Center

Minor Planet Center

MPEC 2004-M37 : 2003 FJ127, 2003 QY90

The following Minor Planet Electronic Circular may be linked-to from your own Web pages, but must not otherwise be redistributed electronically.


Read MPEC 2004-M36 Read MPEC 2004-M38


M.P.E.C. 2004-M37                                Issued 2004 June 21, 22:20 UT

     The Minor Planet Electronic Circulars contain information on unusual
         minor planets and routine data on comets.  They are published
   on behalf of Commission 20 of the International Astronomical Union by the
          Minor Planet Center, Smithsonian Astrophysical Observatory,
                          Cambridge, MA 02138, U.S.A.

         Supported in part by the Steven and Michele Kirsch Foundation
             Prepared using the Tamkin Foundation Computer Network

                              MPC@CFA.HARVARD.EDU
          URL http://cfa-www.harvard.edu/iau/mpc.html  ISSN 1523-6714

                             2003 FJ127, 2003 QY90

                      Revision to MPEC 2003-H05, 2003-Q58

Additional Observations:
     K03FC7J  C2003 12 18.54657 11 22 46.06 +06 26 42.8          23.2 R EM037568
     K03FC7J  C2003 12 18.64699 11 22 46.10 +06 26 43.8                 EM037568
     K03FC7J  C2004 02 22.38330 11 20 08.33 +06 52 51.2          23.8 R EM037695
     K03FC7J  C2004 02 22.42483 11 20 08.15 +06 52 52.8                 EM037695
     K03Q90Y  C2004 05 28.24796 21 58 09.48 -15 02 28.1          23.2 R EM037304
     K03Q90Y  C2004 05 28.33567 21 58 09.39 -15 02 28.4                 EM037304
     K03Q90Y  C2004 05 28.37691 21 58 09.46 -15 02 27.7                 EM037304
     K03Q90Y  C2004 05 29.27426 21 58 09.31 -15 02 33.4          23.0 R EM037304
     K03Q90Y  C2004 05 29.39376 21 58 09.29 -15 02 33.6                 EM037304

Observer details:
304 Las Campanas Observatory.  Observers S. D. Kern, J. L. Elliot,
    K. B. Clancy.  Measurer S. D. Kern.  Clay 6.5-m telescope + CCD.
568 Mauna Kea.  Observers K. J. Meech, J. Pittichova.  2.2-m reflector + CCD.
695 Kitt Peak.  Observer M. W. Buie.  Measurers M. W. Buie, L. H. Wasserman,
    R. L. Millis.  4-m reflector + CCD.

Orbital elements:
2003 FJ127
Epoch 2004 July 14.0 TT = JDT 2453200.5                 MPC
M 302.42103              (2000.0)            P               Q
n   0.00332560     Peri.   89.45063     -0.29020797     +0.94961855
a  44.4517743      Node   162.24280     -0.95693005     -0.28900589
e   0.2293896      Incl.   22.83102     +0.00801309     -0.12124443
P 296              H    7.1           G   0.15           U   6
Residuals in seconds of arc
K033U  695  0.0   0.4+    K034L  304  0.1+  0.1+    K03CI  568  0.1+  0.0
K033U  695  0.3-  0.3+    K035V  568  0.1+  0.3-    K03CI  568  0.4+  0.2+
K033V  695  0.0   0.3-    K0361  568  0.1-  0.3-    K042M  695  0.3-  0.1-
K034L  304  0.1-  0.1-    K0362  568  0.3+  0.1+    K042M  695  0.2-  0.1+

2003 QY90
Epoch 2004 July 14.0 TT = JDT 2453200.5                 MPC
M 124.47935              (2000.0)            P               Q
n   0.00351928     Peri.   89.36586     -0.97024874     +0.23358316
a  42.8055989      Node   104.14089     -0.23992722     -0.89239050
e   0.0830366      Incl.    3.76585     -0.03243923     -0.38610634
P 280              H    5.9           G   0.15           U   7
Residuals in seconds of arc
K038O  807  0.1+  0.1+    K03AN  304  0.0   0.1+    K045S  304  0.6-  0.0
K038O  807  0.2+  0.0     K03AN  304  0.0   0.1+    K045S  304  0.5+  0.9+
K038P  807  0.1-  0.3+    K03AN  304  0.1+  0.2+    K045T  304  0.3-  0.6-
K038P  807  0.1-  0.5-    K03AO  304  0.1+  0.2+    K045T  304  0.2-  0.2-
K039S  688  0.4+  0.9-    K03AO  304  0.4-  0.3+
K039S  688  0.0   0.4+    K045S  304  0.6+  0.1-

Ephemerides:
2003 FJ127               a,e,i = 44.45, 0.23, 23                 q = 34.255
Date    TT    R. A. (2000) Decl.     Delta      r     Elong.  Phase     V
2004 06 14    11 15.20   +07 30.9   41.071   40.970    83.5     1.4    23.4
2004 06 24    11 15.50   +07 29.3   41.231   40.964    74.1     1.4    23.4
2004 07 04    11 15.94   +07 26.8   41.382   40.958    64.7     1.3    23.4
2004 07 14    11 16.51   +07 23.6   41.522   40.952    55.3     1.2    23.4
2004 07 24    11 17.20   +07 19.7   41.645   40.946    46.0     1.0    23.4
2004 08 03    11 18.00   +07 15.2   41.749   40.940    36.6     0.8    23.4

2003 QY90                a,e,i = 42.81, 0.08, 4                  q = 39.251
Date    TT    R. A. (2000) Decl.     Delta      r     Elong.  Phase     V
2004 06 14    21 57.95   -15 04.7   44.532   45.000   116.8     1.2    22.6
2004 06 24    21 57.64   -15 06.9   44.390   45.001   126.4     1.0    22.6
2004 07 04    21 57.22   -15 09.7   44.265   45.003   136.1     0.9    22.5
2004 07 14    21 56.69   -15 13.0   44.161   45.004   145.7     0.7    22.5
2004 07 24    21 56.08   -15 16.6   44.081   45.006   155.4     0.5    22.5
2004 08 03    21 55.40   -15 20.5   44.027   45.008   165.0     0.3    22.5
2004 08 13    21 54.68   -15 24.4   44.001   45.009   174.4     0.1    22.4
2004 08 23    21 53.95   -15 28.4   44.004   45.011   174.6     0.1    22.4
2004 09 02    21 53.23   -15 32.1   44.037   45.013   165.1     0.3    22.5
2004 09 12    21 52.54   -15 35.6   44.098   45.014   155.3     0.5    22.5
2004 09 22    21 51.91   -15 38.6   44.186   45.016   145.5     0.7    22.5
2004 10 02    21 51.37   -15 41.1   44.298   45.018   135.5     0.9    22.5
2004 10 12    21 50.93   -15 43.0   44.431   45.019   125.6     1.0    22.6
2004 10 22    21 50.62   -15 44.2   44.582   45.021   115.6     1.1    22.6
2004 11 01    21 50.44   -15 44.6   44.746   45.022   105.6     1.2    22.6
2004 11 11    21 50.41   -15 44.3   44.917   45.024    95.6     1.3    22.6
2004 11 21    21 50.52   -15 43.2   45.092   45.026    85.5     1.3    22.6
2004 12 01    21 50.79   -15 41.3   45.264   45.027    75.5     1.2    22.6
2004 12 11    21 51.19   -15 38.7   45.429   45.029    65.4     1.1    22.6
2004 12 21    21 51.74   -15 35.5   45.582   45.031    55.4     1.0    22.6
2004 12 31    21 52.40   -15 31.7   45.717   45.032    45.4     0.9    22.6
2005 01 10    21 53.16   -15 27.4   45.831   45.034    35.5     0.7    22.6

Brian G. Marsden             (C) Copyright 2004 MPC           M.P.E.C. 2004-M37

Read MPEC 2004-M36 Read MPEC 2004-M38


Our Web policy. Index to the CBAT/MPC/ICQ pages.


Valid HTML 4.01!